Home   Weather   Changsha   Past weeks
Flag for China

Past Weather in Changsha, Hunan, China — Yesterday and Last 2 Weeks

Now
43 °F

Fog.


Feels Like: 37 °F
Forecast: 52 / 39 °F
Wind: 10 mph from North

Location: Changsha

Current Time: Jan 20, 2019 at 9:08:42 pm

Latest Report: Jan 20, 2019 at 8:00 pm


Visibility: 2 mi

Pressure: 30.45 "Hg

Humidity: 76%

Dew Point: 36 °F

Location of ChangshaLocation

Past Weather in Changsha — Graph

°F

Changsha Temperature Yesterday

Maximum temperature yesterday: 46 °F (at 12:00 am)
Minimum temperature yesterday: 45 °F (at 3:00 am)
Average temperature yesterday: 45 °F

High & Low Weather Summary for the Past Weeks

 TemperatureHumidityPressure
High48 °F (Jan 18, 3:00 pm)100% (Jan 6, 7:00 pm)30.48 "Hg (Jan 6, 7:00 pm)
Low32 °F (Jan 16, 9:00 am)66% (Jan 18, 10:00 am)30.15 "Hg (Jan 18, 4:00 pm)
Average41 °F92%30.34 "Hg
* Reported Jan 5 8:00 pm — Jan 20 8:00 pm, Changsha. Weather by CustomWeather, © 2019

Note: Actual official high and low records may vary slightly from our data, if they occured in-between our weather recording intervals... More about our weather records

Advertising

Changsha Weather History for the Previous 24 Hours

Scroll right to see more
 ConditionsComfort  
Time TempWeatherWind HumidityBarometerVisibility
8:00 pm
Sun, Jan 20
43 °FFog.10 mph76%30.45 "Hg2 mi
7:00 pm43 °FFog.13 mph81%30.42 "Hg2 mi
6:00 pm43 °FFog.10 mph81%30.42 "Hg1 mi
5:00 pm43 °FFog.15 mph81%30.42 "Hg1 mi
4:00 pm43 °FFog.17 mph81%30.39 "Hg1 mi
3:00 pm45 °FFog.15 mph81%30.39 "Hg1 mi
2:00 pm45 °FFog.13 mph87%30.42 "Hg1 mi
1:00 pm45 °FFog.10 mph87%30.42 "Hg1 mi
12:00 pm43 °FSprinkles. Fog.10 mph93%30.45 "Hg1 mi
11:00 am43 °FSprinkles. Fog.10 mph93%30.45 "Hg1 mi
10:00 am43 °FLight rain. Fog.10 mph93%30.45 "Hg1 mi
9:00 am41 °FSprinkles. Fog.10 mph93%30.42 "Hg1 mi
8:00 am41 °FRain showers. Fog.15 mph93%30.39 "Hg1 mi
7:00 am43 °FSprinkles. Fog.13 mph93%30.39 "Hg2 mi
6:00 am43 °FFog.8 mph93%30.36 "Hg2 mi
5:00 am43 °FFog.10 mph93%30.33 "Hg2 mi
4:00 am43 °FLight rain. Fog.10 mph93%30.33 "Hg2 mi
3:00 am43 °FFog.10 mph93%30.33 "Hg2 mi
2:00 am43 °FLight rain. Fog.8 mph93%30.33 "Hg2 mi
1:00 am43 °FFog.8 mph93%30.33 "Hg2 mi
12:00 am43 °FFog.10 mph93%30.33 "Hg2 mi
11:00 pm
Sat, Jan 19
45 °FLight rain. Fog.10 mph93%30.30 "Hg2 mi
10:00 pm45 °FLight rain. Fog.10 mph93%30.30 "Hg2 mi
9:00 pm45 °FLight rain. Fog.10 mph93%30.27 "Hg2 mi
Weather by CustomWeather, © 2019

See weather overview

LIVE TOTAL LUNAR ECLIPSE – Watch the eclipse as it happens